| time (UTC) | temp F | wind direction | speed knots | gust knots | rain 1hr in | rain 24hr in | rain mn in | humidity % | barometer mb |
| 20260509055030 | 82 | 23 | 0.0 | 0.9 | 0.00 | 0.00 | 0.00 | 21 | 1005.7 |
| 20260509054025 | 82 | 26 | 0.0 | 0.0 | 0.00 | 0.00 | 0.00 | 20 | 1005.6 |
| 20260509053042 | 82 | 20 | 0.0 | 0.0 | 0.00 | 0.00 | 0.00 | 20 | 1005.7 |
| 20260509052050 | 83 | 359 | 0.0 | 0.0 | 0.00 | 0.00 | 0.00 | 20 | 1005.7 |
| 20260509051021 | 83 | 29 | 0.0 | 0.9 | 0.00 | 0.00 | 0.00 | 20 | 1005.7 |
| 20260509050026 | 83 | 24 | 0.0 | 0.0 | 0.00 | 0.00 | 0.00 | 20 | 1005.6 |
| 20260509045040 | 84 | 43 | 0.0 | 0.0 | 0.00 | 0.00 | 0.00 | 20 | 1005.5 |
| 20260509044035 | 84 | 0.0 | 0.0 | 0.00 | 0.00 | 0.00 | 20 | 1005.5 | |
| 20260509043040 | 84 | 0.0 | 0.0 | 0.00 | 0.00 | 0.00 | 19 | 1005.4 | |
| 20260509042026 | 85 | 0.0 | 0.0 | 0.00 | 0.00 | 0.00 | 19 | 1005.3 | |
| 20260509041024 | 85 | 0.0 | 0.0 | 0.00 | 0.00 | 0.00 | 19 | 1005.2 | |
| 20260509040030 | 86 | 0.0 | 0.0 | 0.00 | 0.00 | 0.00 | 19 | 1005.1 | |
| 20260509035032 | 86 | 0.0 | 0.0 | 0.00 | 0.00 | 0.00 | 18 | 1005.0 | |
| 20260509034030 | 86 | 0.0 | 0.0 | 0.00 | 0.00 | 0.00 | 20 | 1004.9 | |
| 20260509033042 | 86 | 0.0 | 0.0 | 0.00 | 0.00 | 0.00 | 17 | 1004.8 | |
| 20260509032021 | 87 | 0.0 | 0.0 | 0.00 | 0.00 | 0.00 | 16 | 1004.8 | |
| 20260509031027 | 87 | 0.0 | 0.0 | 0.00 | 0.00 | 0.00 | 15 | 1004.6 | |
| 20260509030042 | 88 | 23 | 0.0 | 0.0 | 0.00 | 0.00 | 0.00 | 14 | 1004.4 |
| 20260509025101 | 89 | 345 | 0.0 | 0.9 | 0.00 | 0.00 | 0.00 | 14 | 1004.4 |
| 20260509024022 | 89 | 342 | 0.0 | 0.9 | 0.00 | 0.00 | 0.00 | 14 | 1004.3 |
| 20260509023036 | 90 | 318 | 0.9 | 0.9 | 0.00 | 0.00 | 0.00 | 13 | 1004.1 |
| 20260509022025 | 90 | 315 | 0.9 | 0.9 | 0.00 | 0.00 | 0.00 | 13 | 1004.1 |
| 20260509021022 | 91 | 340 | 1.7 | 1.7 | 0.00 | 0.00 | 0.00 | 13 | 1004.0 |
| 20260509020058 | 91 | 323 | 0.9 | 1.7 | 0.00 | 0.00 | 0.00 | 13 | 1003.9 |
| 20260509014031 | 92 | 299 | 0.9 | 1.7 | 0.00 | 0.00 | 0.00 | 13 | 1003.7 |
| 20260509013021 | 93 | 302 | 1.7 | 1.7 | 0.00 | 0.00 | 0.00 | 13 | 1003.7 |
| 20260509012027 | 93 | 335 | 1.7 | 2.6 | 0.00 | 0.00 | 0.00 | 11 | 1003.7 |
| 20260509011034 | 0 | 2 | 2.6 | 2.6 | 0.00 | 0.00 | 0.00 | 1003.7 | |
| 20260509010043 | 94 | 11 | 1.7 | 2.6 | 0.00 | 0.00 | 0.00 | 12 | 1003.7 |
| 20260509005028 | 94 | 298 | 1.7 | 1.7 | 0.00 | 0.00 | 0.00 | 12 | 1003.7 |
| 20260509004037 | 94 | 277 | 2.6 | 2.6 | 0.00 | 0.00 | 0.00 | 12 | 1003.7 |
| 20260509003059 | 94 | 323 | 2.6 | 2.6 | 0.00 | 0.00 | 0.00 | 12 | 1003.7 |
| 20260509002033 | 95 | 304 | 1.7 | 1.7 | 0.00 | 0.00 | 0.00 | 12 | 1003.7 |
| 20260509001031 | 95 | 330 | 1.7 | 1.7 | 0.00 | 0.00 | 0.00 | 12 | 1003.8 |
| 20260509000026 | 95 | 275 | 2.6 | 2.6 | 0.00 | 0.00 | 0.00 | 12 | 1003.8 |
| 20260508235027 | 95 | 353 | 2.6 | 2.6 | 0.00 | 0.00 | 0.00 | 12 | 1003.8 |
| 20260508234021 | 95 | 305 | 1.7 | 2.6 | 0.00 | 0.00 | 0.00 | 12 | 1003.9 |
| 20260508233043 | 96 | 314 | 2.6 | 2.6 | 0.00 | 0.00 | 0.00 | 12 | 1004.1 |
| 20260508232021 | 96 | 320 | 1.7 | 2.6 | 0.00 | 0.00 | 0.00 | 12 | 1004.1 |
| 20260508231021 | 96 | 296 | 1.7 | 1.7 | 0.00 | 0.00 | 0.00 | 12 | 1004.2 |
| 20260508230059 | 96 | 290 | 1.7 | 2.6 | 0.00 | 0.00 | 0.00 | 12 | 1004.2 |
| 20260508225046 | 96 | 315 | 2.6 | 2.6 | 0.00 | 0.00 | 0.00 | 12 | 1004.4 |
| 20260508224024 | 96 | 283 | 2.6 | 2.6 | 0.00 | 0.00 | 0.00 | 13 | 1004.4 |
| 20260508223046 | 96 | 286 | 2.6 | 2.6 | 0.00 | 0.00 | 0.00 | 13 | 1004.5 |
| 20260508222057 | 97 | 286 | 1.7 | 2.6 | 0.00 | 0.00 | 0.00 | 13 | 1004.6 |
| 20260508221033 | 96 | 341 | 2.6 | 2.6 | 0.00 | 0.00 | 0.00 | 13 | 1004.9 |
| 20260508220048 | 96 | 260 | 2.6 | 2.6 | 0.00 | 0.00 | 0.00 | 13 | 1005.1 |
| 20260508215044 | 96 | 258 | 2.6 | 2.6 | 0.00 | 0.00 | 0.00 | 13 | 1005.2 |
| 20260508214028 | 96 | 270 | 2.6 | 2.6 | 0.00 | 0.00 | 0.00 | 13 | 1005.4 |
| 20260508213034 | 96 | 301 | 1.7 | 2.6 | 0.00 | 0.00 | 0.00 | 14 | 1005.5 |
| 20260508212051 | 96 | 230 | 2.6 | 2.6 | 0.00 | 0.00 | 0.00 | 13 | 1005.6 |
| 20260508211041 | 96 | 282 | 1.7 | 2.6 | 0.00 | 0.00 | 0.00 | 14 | 1005.7 |
| 20260508210021 | 96 | 1 | 1.7 | 1.7 | 0.00 | 0.00 | 0.00 | 14 | 1005.9 |
| 20260508205025 | 96 | 303 | 2.6 | 2.6 | 0.00 | 0.00 | 0.00 | 14 | 1006.0 |
| 20260508204052 | 96 | 271 | 2.6 | 2.6 | 0.00 | 0.00 | 0.00 | 14 | 1006.3 |
| 20260508203030 | 96 | 343 | 2.6 | 2.6 | 0.00 | 0.00 | 0.00 | 14 | 1006.4 |
| 20260508202028 | 95 | 329 | 2.6 | 2.6 | 0.00 | 0.00 | 0.00 | 15 | 1006.5 |
| 20260508201028 | 95 | 291 | 2.6 | 2.6 | 0.00 | 0.00 | 0.00 | 15 | 1006.6 |
| 20260508200024 | 95 | 311 | 2.6 | 2.6 | 0.00 | 0.00 | 0.00 | 15 | 1006.8 |
| 20260508195022 | 95 | 267 | 2.6 | 2.6 | 0.00 | 0.00 | 0.00 | 15 | 1006.8 |
| 20260508194020 | 94 | 294 | 2.6 | 2.6 | 0.00 | 0.00 | 0.00 | 16 | 1007.0 |
| 20260508193041 | 94 | 327 | 2.6 | 2.6 | 0.00 | 0.00 | 0.00 | 16 | 1007.0 |
| 20260508192046 | 93 | 303 | 2.6 | 2.6 | 0.00 | 0.00 | 0.00 | 16 | 1007.1 |
| 20260508191030 | 93 | 301 | 2.6 | 2.6 | 0.00 | 0.00 | 0.00 | 16 | 1007.2 |
| 20260508190019 | 92 | 282 | 1.7 | 1.7 | 0.00 | 0.00 | 0.00 | 17 | 1007.5 |
| 20260508185020 | 91 | 24 | 1.7 | 1.7 | 0.00 | 0.00 | 0.00 | 18 | 1007.5 |
| 20260508184037 | 91 | 290 | 1.7 | 1.7 | 0.00 | 0.00 | 0.00 | 18 | |
| 20260508183044 | 90 | 301 | 0.9 | 1.7 | 0.00 | 0.00 | 0.00 | 18 | |
| 20260508182026 | 89 | 168 | 1.7 | 1.7 | 0.00 | 0.00 | 0.00 | 18 | 1008.0 |
| 20260508181022 | 89 | 247 | 0.9 | 0.9 | 0.00 | 0.00 | 0.00 | 19 | 1008.1 |
| 20260508180028 | 89 | 202 | 0.9 | 0.9 | 0.00 | 0.00 | 0.00 | 19 | 1008.3 |
| 20260508175033 | 88 | 262 | 0.9 | 0.9 | 0.00 | 0.00 | 0.00 | 20 | 1008.4 |
| 20260508174040 | 87 | 322 | 0.9 | 0.9 | 0.00 | 0.00 | 0.00 | 20 | 1008.4 |
| 20260508173025 | 87 | 208 | 0.9 | 0.9 | 0.00 | 0.00 | 0.00 | 20 | 1008.5 |
| 20260508172041 | 86 | 214 | 0.9 | 0.9 | 0.00 | 0.00 | 0.00 | 20 | 1008.6 |
| 20260508171045 | 86 | 340 | 0.9 | 0.9 | 0.00 | 0.00 | 0.00 | 21 | 1008.8 |
| 20260508170032 | 85 | 256 | 0.9 | 0.9 | 0.00 | 0.00 | 0.00 | 22 | 1008.8 |
| 20260508165030 | 85 | 183 | 0.9 | 0.9 | 0.00 | 0.00 | 0.00 | 22 | 1008.9 |
| 20260508164027 | 84 | 301 | 0.9 | 0.9 | 0.00 | 0.00 | 0.00 | 23 | 1008.9 |
| 20260508163026 | 83 | 216 | 0.9 | 0.9 | 0.00 | 0.00 | 0.00 | 23 | 1008.9 |
| 20260508162043 | 82 | 320 | 0.9 | 0.9 | 0.00 | 0.00 | 0.00 | 23 | 1009.0 |
| 20260508161041 | 81 | 233 | 0.9 | 0.9 | 0.00 | 0.00 | 0.00 | 24 | 1009.0 |
| 20260508160023 | 80 | 222 | 0.9 | 0.9 | 0.00 | 0.00 | 0.00 | 25 | 1009.0 |
| 20260508155101 | 79 | 231 | 0.9 | 0.9 | 0.00 | 0.00 | 0.00 | 26 | 1009.1 |
| 20260508154046 | 79 | 151 | 0.9 | 0.9 | 0.00 | 0.00 | 0.00 | 27 | 1009.1 |
| 20260508153019 | 78 | 193 | 0.9 | 0.9 | 0.00 | 0.00 | 0.00 | 27 | 1009.2 |
| 20260508152025 | 77 | 217 | 0.9 | 0.9 | 0.00 | 0.00 | 0.00 | 28 | 1009.1 |
| 20260508151053 | 76 | 141 | 0.9 | 0.9 | 0.00 | 0.00 | 0.00 | 29 | 1009.1 |
| 20260508150057 | 75 | 195 | 0.9 | 0.9 | 0.00 | 0.00 | 0.00 | 30 | 1009.2 |
| 20260508145209 | 74 | 200 | 0.9 | 0.9 | 0.00 | 0.00 | 0.00 | 31 | 1009.2 |
| 20260508144054 | 73 | 184 | 0.9 | 0.9 | 0.00 | 0.00 | 0.00 | 32 | 1009.2 |
| 20260508143022 | 72 | 143 | 0.9 | 0.9 | 0.00 | 0.00 | 0.00 | 33 | 1009.1 |
| 20260508142028 | 71 | 201 | 0.0 | 0.9 | 0.00 | 0.00 | 0.00 | 34 | 1009.1 |
| 20260508141033 | 70 | 164 | 0.0 | 0.9 | 0.00 | 0.00 | 0.00 | 35 | 1009.0 |
| 20260508140026 | 69 | 0.0 | 0.0 | 0.00 | 0.00 | 0.00 | 38 | 1009.0 | |
| 20260508135037 | 68 | 0.0 | 0.0 | 0.00 | 0.00 | 0.00 | 40 | 1009.0 | |
| 20260508134019 | 67 | 0.0 | 0.0 | 0.00 | 0.00 | 0.00 | 41 | 1009.0 | |
| 20260508133045 | 66 | 0.0 | 0.0 | 0.00 | 0.00 | 0.00 | 42 | 1008.9 | |
| 20260508132033 | 65 | 0.0 | 0.0 | 0.00 | 0.00 | 0.00 | 42 | 1008.9 | |
| 20260508131022 | 64 | 0.0 | 0.0 | 0.00 | 0.00 | 0.00 | 42 | 1008.7 | |
| 20260508130047 | 64 | 0.0 | 0.0 | 0.00 | 0.00 | 0.00 | 41 | 1008.7 | |
| 20260508125104 | 64 | 0.0 | 0.0 | 0.00 | 0.00 | 0.00 | 41 | 1008.5 | |
| 20260508124049 | 65 | 0.0 | 0.0 | 0.00 | 0.00 | 0.00 | 41 | 1008.4 | |
| 20260508123020 | 65 | 0.0 | 0.0 | 0.00 | 0.00 | 0.00 | 40 | 1008.3 | |
| 20260508122019 | 65 | 0.0 | 0.0 | 0.00 | 0.00 | 0.00 | 40 | 1008.2 | |
| 20260508121034 | 66 | 0.0 | 0.0 | 0.00 | 0.00 | 0.00 | 39 | 1008.2 | |
| 20260508120042 | 66 | 0.0 | 0.0 | 0.00 | 0.00 | 0.00 | 39 | 1008.1 | |
| 20260508115019 | 66 | 0.0 | 0.0 | 0.00 | 0.00 | 0.00 | 38 | 1008.0 | |
| 20260508114026 | 67 | 0.0 | 0.0 | 0.00 | 0.00 | 0.00 | 37 | 1008.0 | |
| 20260508113033 | 67 | 0.0 | 0.0 | 0.00 | 0.00 | 0.00 | 37 | 1007.9 | |
| 20260508112031 | 67 | 0.0 | 0.0 | 0.00 | 0.00 | 0.00 | 37 | 1007.9 | |
| 20260508111058 | 67 | 0.0 | 0.0 | 0.00 | 0.00 | 0.00 | 37 | 1007.7 | |
| 20260508110025 | 67 | 0.0 | 0.0 | 0.00 | 0.00 | 0.00 | 37 | 1007.6 | |
| 20260508105023 | 68 | 0.0 | 0.0 | 0.00 | 0.00 | 0.00 | 36 | 1007.6 | |
| 20260508104049 | 68 | 0.0 | 0.0 | 0.00 | 0.00 | 0.00 | 35 | 1007.6 | |
| 20260508103028 | 68 | 0.0 | 0.0 | 0.00 | 0.00 | 0.00 | 35 | 1007.6 | |
| 20260508102043 | 69 | 0.0 | 0.0 | 0.00 | 0.00 | 0.00 | 35 | 1007.6 | |
| 20260508101036 | 69 | 0.0 | 0.0 | 0.00 | 0.00 | 0.00 | 34 | 1007.5 | |
| 20260508100020 | 69 | 0.0 | 0.0 | 0.00 | 0.00 | 0.00 | 34 | 1007.5 | |
| 20260508095046 | 69 | 0.0 | 0.0 | 0.00 | 0.00 | 0.00 | 34 | 1007.5 | |
| 20260508094025 | 70 | 0.0 | 0.0 | 0.00 | 0.00 | 0.00 | 33 | 1007.4 | |
| 20260508093028 | 70 | 0.0 | 0.0 | 0.00 | 0.00 | 0.00 | 33 | 1007.4 | |
| 20260508092025 | 70 | 0.0 | 0.0 | 0.00 | 0.00 | 0.00 | 33 | 1007.4 | |
| 20260508091025 | 70 | 0.0 | 0.0 | 0.00 | 0.00 | 0.00 | 33 | 1007.4 | |
| 20260508090023 | 70 | 0.0 | 0.0 | 0.00 | 0.00 | 0.00 | 32 | 1007.6 | |
| 20260508085022 | 71 | 0.0 | 0.0 | 0.00 | 0.00 | 0.00 | 32 | 1007.5 | |
| 20260508084057 | 71 | 0.0 | 0.0 | 0.00 | 0.00 | 0.00 | 31 | 1007.7 | |
| 20260508083101 | 71 | 0.0 | 0.0 | 0.00 | 0.00 | 0.00 | 31 | 1007.7 | |
| 20260508082027 | 72 | 0.0 | 0.0 | 0.00 | 0.00 | 0.00 | 30 | 1007.7 | |
| 20260508081020 | 72 | 0.0 | 0.0 | 0.00 | 0.00 | 0.00 | 30 | 1008.0 | |
| 20260508080026 | 72 | 0.0 | 0.0 | 0.00 | 0.00 | 0.00 | 30 | 1008.1 | |
| 20260508075034 | 73 | 0.0 | 0.0 | 0.00 | 0.00 | 0.00 | 29 | 1008.0 | |
| 20260508074038 | 73 | 0.0 | 0.0 | 0.00 | 0.00 | 0.00 | 29 | 1008.2 | |
| 20260508073024 | 73 | 0.0 | 0.0 | 0.00 | 0.00 | 0.00 | 28 | 1008.1 | |
| 20260508072044 | 74 | 0.0 | 0.0 | 0.00 | 0.00 | 0.00 | 26 | 1008.1 | |
| 20260508071023 | 75 | 0.0 | 0.0 | 0.00 | 0.00 | 0.00 | 25 | 1008.1 | |
| 20260508070031 | 76 | 0.0 | 0.0 | 0.00 | 0.00 | 0.00 | 24 | 1008.1 | |
| 20260508065055 | 76 | 0.0 | 0.0 | 0.00 | 0.00 | 0.00 | 24 | 1008.0 | |
| 20260508064021 | 76 | 0.0 | 0.0 | 0.00 | 0.00 | 0.00 | 24 | 1008.2 | |
| 20260508063036 | 77 | 0.0 | 0.0 | 0.00 | 0.00 | 0.00 | 23 | 1008.2 | |
| 20260508062020 | 77 | 0.0 | 0.0 | 0.00 | 0.00 | 0.00 | 23 | 1008.2 | |
| 20260508061027 | 77 | 0.0 | 0.0 | 0.00 | 0.00 | 0.00 | 23 | ||
| 20260508060029 | 77 | 0.0 | 0.0 | 0.00 | 0.00 | 0.00 | 22 | 1008.3 |